This is the latest recevied weather packets stored in our database for station/object KAGO. If no packets are shown the sender has not sent any weather packets the latest 10 day(s).
| Time | Temp. | Humidity | Pressure | Rain* | Wind** | Luminosity | Snow |
|---|---|---|---|---|---|---|---|
| 1778297011 | 17.78° C | 88% | 1010.8 hPa | - | - | - | - |
| 1778296412 | 18.89° C | 82% | 1010.5 hPa | - | - | - | - |
| 1778295812 | 18.89° C | 82% | 1010.5 hPa | - | - | - | - |
| 1778295211 | 18.89° C | 82% | 1010.5 hPa | - | - | - | - |
| 1778294608 | 18.89° C | 82% | 1010.5 hPa | - | - | - | - |
| 1778294010 | 18.89° C | 82% | 1009.8 hPa | - | - | - | - |
| 1778293410 | 18.89° C | 82% | 1009.8 hPa | - | - | - | - |
| 1778292807 | 18.89° C | 77% | 1009.5 hPa | - | - | - | - |
| 1778292208 | 18.89° C | 77% | 1009.5 hPa | - | - | - | - |
| 1778291607 | 20° C | 72% | 1008.8 hPa | - | - | - | - |
| 1778291011 | 20° C | 72% | 1008.8 hPa | - | - | - | - |
| 1778290410 | 20.56° C | 68% | 1008.8 hPa | - | - | - | - |
| 1778289814 | 20.56° C | 68% | 1008.8 hPa | - | - | - | - |
| 1778289206 | 21.67° C | 64% | 1009.1 hPa | - | - | - | - |
| 1778288606 | 21.67° C | 64% | 1009.1 hPa | - | - | - | - |
| 1778288004 | 21.67° C | 68% | 1008.8 hPa | - | - | - | - |
| 1778287409 | 21.67° C | 68% | 1008.8 hPa | - | - | - | - |
| 1778286805 | 21.67° C | 68% | 1009.1 hPa | - | - | - | - |
| 1778286206 | 21.67° C | 68% | 1009.1 hPa | - | - | - | - |
| 1778285606 | 22.78° C | 60% | 1009.8 hPa | - | - | - | - |
| 1778285003 | 22.78° C | 60% | 1009.8 hPa | - | - | - | - |
| 1778284409 | 23.89° C | 57% | 1009.8 hPa | - | - | - | - |
| 1778283805 | 23.89° C | 57% | 1009.8 hPa | - | - | - | - |
| 1778283205 | 23.89° C | 53% | 1009.8 hPa | - | - | - | - |
| 1778282605 | 23.89° C | 53% | 1009.8 hPa | - | - | - | - |
* Rain since midnight (hover to see other rain measurements)
** Current wind speed in m/s (hover to see current wind gust speed)